Time,TemperatureF,DewpointF,PressureIn,WindDirection,WindDirectionDegrees,WindSpeedMPH,WindSpeedGustMPH,Humidity,HourlyPrecipIn,Conditions,Clouds,dailyrainin,SoftwareType,DateUTC
2013-01-28 00:05:00,34.7,28.2,30.26,NE,51,1.0,6.0,77,0.00,,,0.11,Wunderground v.1.13,2013-01-28 08:05:00,
2013-01-28 00:10:00,34.3,28.5,30.27,East,85,2.0,6.0,79,0.00,,,0.11,Wunderground v.1.13,2013-01-28 08:10:00,
2013-01-28 00:15:00,34.1,28.6,30.25,East,79,2.0,6.0,80,0.00,,,0.00,Wunderground v.1.13,2013-01-28 08:15:00,
2013-01-28 00:25:00,33.8,28.6,30.25,ENE,75,4.0,4.0,81,0.00,,,0.00,Wunderground v.1.13,2013-01-28 08:25:00,
2013-01-28 00:35:00,33.7,28.2,30.25,ENE,75,4.0,4.0,80,0.00,,,0.00,Wunderground v.1.13,2013-01-28 08:35:00,
2013-01-28 00:45:00,33.8,28.0,30.25,ENE,76,4.0,6.0,79,0.00,,,0.00,Wunderground v.1.13,2013-01-28 08:45:00,
2013-01-28 00:50:00,34.0,28.2,30.25,ENE,77,4.0,6.0,79,0.00,,,0.00,Wunderground v.1.13,2013-01-28 08:50:00,
2013-01-28 00:55:00,33.8,28.0,30.25,ENE,70,4.0,6.0,79,0.00,,,0.00,Wunderground v.1.13,2013-01-28 08:55:00,
2013-01-28 01:05:00,33.7,27.9,30.26,ENE,76,4.0,5.0,79,0.00,,,0.00,Wunderground v.1.13,2013-01-28 09:05:00,
2013-01-28 01:15:00,33.7,27.6,30.26,ENE,76,5.0,6.0,78,0.00,,,0.00,Wunderground v.1.13,2013-01-28 09:15:00,
2013-01-28 01:20:00,33.7,27.6,30.25,ENE,71,5.0,5.0,78,0.00,,,0.00,Wunderground v.1.13,2013-01-28 09:20:00,
2013-01-28 01:30:00,33.7,27.3,30.26,ENE,72,6.0,6.0,77,0.00,,,0.00,Wunderground v.1.13,2013-01-28 09:30:00,
2013-01-28 01:35:00,33.5,27.1,30.26,East,82,7.0,7.0,77,0.00,,,0.00,Wunderground v.1.13,2013-01-28 09:35:00,
2013-01-28 01:45:00,32.9,27.1,30.26,East,79,6.0,6.0,79,0.00,,,0.00,Wunderground v.1.13,2013-01-28 09:45:00,
2013-01-28 01:55:00,32.7,27.2,30.26,ENE,76,6.0,13.0,80,0.00,,,0.00,Wunderground v.1.13,2013-01-28 09:55:00,
2013-01-28 02:05:00,33.1,26.7,30.26,East,80,9.0,10.0,77,0.00,,,0.00,Wunderground v.1.13,2013-01-28 10:05:00,
2013-01-28 02:10:00,32.9,26.8,30.26,East,85,8.0,8.0,78,0.00,,,0.00,Wunderground v.1.13,2013-01-28 10:10:00,
2013-01-28 02:20:00,33.4,26.3,30.25,ENE,76,10.0,10.0,75,0.00,,,0.00,Wunderground v.1.13,2013-01-28 10:20:00,
2013-01-28 02:25:00,33.4,26.3,30.25,ENE,71,8.0,8.0,75,0.00,,,0.00,Wunderground v.1.13,2013-01-28 10:25:00,
2013-01-28 02:35:00,33.1,26.4,30.25,ENE,71,5.0,7.0,76,0.00,,,0.00,Wunderground v.1.13,2013-01-28 10:35:00,
2013-01-28 02:45:00,32.7,25.6,30.25,ENE,74,5.0,8.0,75,0.00,,,0.00,Wunderground v.1.13,2013-01-28 10:45:00,
2013-01-28 02:50:00,32.8,25.7,30.25,East,81,6.0,7.0,75,0.00,,,0.00,Wunderground v.1.13,2013-01-28 10:50:00,
2013-01-28 03:00:00,32.8,25.4,30.25,ENE,74,7.0,7.0,74,0.00,,,0.00,Wunderground v.1.13,2013-01-28 11:00:00,
2013-01-28 03:05:00,32.7,25.3,30.25,ENE,77,8.0,9.0,74,0.00,,,0.00,Wunderground v.1.13,2013-01-28 11:05:00,
2013-01-28 03:10:00,32.7,25.3,30.26,ENE,73,7.0,9.0,74,0.00,,,0.00,Wunderground v.1.13,2013-01-28 11:10:00,
2013-01-28 03:20:00,32.7,25.3,30.26,ENE,70,6.0,7.0,74,0.00,,,0.00,Wunderground v.1.13,2013-01-28 11:20:00,
2013-01-28 03:25:00,32.8,25.1,30.26,ENE,71,5.0,5.0,73,0.00,,,0.00,Wunderground v.1.13,2013-01-28 11:25:00,
2013-01-28 03:35:00,32.9,24.9,30.26,ENE,73,4.0,4.0,72,0.00,,,0.00,Wunderground v.1.13,2013-01-28 11:35:00,
2013-01-28 03:45:00,32.9,24.9,30.26,NE,46,3.0,3.0,72,0.00,,,0.00,Wunderground v.1.13,2013-01-28 11:45:00,
2013-01-28 03:55:00,33.2,24.1,30.26,ENE,59,3.0,3.0,69,0.00,,,0.00,Wunderground v.1.13,2013-01-28 11:55:00,
2013-01-28 04:05:00,33.2,24.8,30.26,NE,55,2.0,7.0,71,0.00,,,0.00,Wunderground v.1.13,2013-01-28 12:05:00,
2013-01-28 04:10:00,32.9,24.2,30.26,ENE,66,2.0,7.0,70,0.00,,,0.00,Wunderground v.1.13,2013-01-28 12:10:00,
2013-01-28 04:20:00,32.9,24.2,30.27,ENE,69,2.0,7.0,70,0.00,,,0.00,Wunderground v.1.13,2013-01-28 12:20:00,
2013-01-28 04:25:00,33.1,23.7,30.27,NE,40,2.0,7.0,68,0.00,,,0.00,Wunderground v.1.13,2013-01-28 12:25:00,
2013-01-28 04:30:00,33.4,23.6,30.27,ENE,68,2.0,7.0,67,0.00,,,0.00,Wunderground v.1.13,2013-01-28 12:30:00,
2013-01-28 04:40:00,33.1,24.0,30.27,NE,43,2.0,2.0,69,0.00,,,0.00,Wunderground v.1.13,2013-01-28 12:40:00,
2013-01-28 04:50:00,33.2,23.8,30.27,ENE,73,2.0,7.0,68,0.00,,,0.00,Wunderground v.1.13,2013-01-28 12:50:00,
2013-01-28 05:00:00,33.7,26.0,30.27,ENE,77,2.0,7.0,73,0.00,,,0.00,Wunderground v.1.13,2013-01-28 13:00:00,
2013-01-28 05:05:00,33.5,26.1,30.27,NE,52,3.0,3.0,74,0.00,,,0.00,Wunderground v.1.13,2013-01-28 13:05:00,
2013-01-28 05:15:00,32.8,24.4,30.28,ENE,66,3.0,3.0,71,0.00,,,0.00,Wunderground v.1.13,2013-01-28 13:15:00,
2013-01-28 05:20:00,32.7,24.3,30.27,ENE,59,3.0,3.0,71,0.00,,,0.00,Wunderground v.1.13,2013-01-28 13:20:00,
2013-01-28 05:35:00,32.2,24.2,30.27,ENE,74,1.0,7.0,72,0.00,,,0.00,Wunderground v.1.13,2013-01-28 13:35:00,
2013-01-28 05:40:00,32.4,24.0,30.28,ENE,75,2.0,7.0,71,0.00,,,0.00,Wunderground v.1.13,2013-01-28 13:40:00,
2013-01-28 05:50:00,32.2,24.5,30.28,ENE,75,3.0,7.0,73,0.00,,,0.00,Wunderground v.1.13,2013-01-28 13:50:00,
2013-01-28 05:55:00,32.2,24.2,30.28,ENE,72,3.0,7.0,72,0.00,,,0.00,Wunderground v.1.13,2013-01-28 13:55:00,
2013-01-28 06:00:00,32.4,24.0,30.28,ENE,64,4.0,4.0,71,0.00,,,0.00,Wunderground v.1.13,2013-01-28 14:00:00,
2013-01-28 06:05:00,32.2,24.2,30.27,ENE,76,3.0,7.0,72,0.00,,,0.00,Wunderground v.1.13,2013-01-28 14:05:00,
2013-01-28 06:15:00,32.5,24.5,30.28,ENE,76,3.0,7.0,72,0.00,,,0.00,Wunderground v.1.13,2013-01-28 14:15:00,
2013-01-28 06:20:00,32.5,24.5,30.28,ENE,76,4.0,7.0,72,0.00,,,0.00,Wunderground v.1.13,2013-01-28 14:20:00,
2013-01-28 06:30:00,32.7,24.0,30.28,ENE,69,4.0,4.0,70,0.00,,,0.00,Wunderground v.1.13,2013-01-28 14:30:00,
2013-01-28 06:40:00,32.5,23.8,30.28,ENE,69,3.0,7.0,70,0.00,,,0.00,Wunderground v.1.13,2013-01-28 14:40:00,
2013-01-28 06:45:00,32.4,24.0,30.28,ENE,78,3.0,7.0,71,0.00,,,0.00,Wunderground v.1.13,2013-01-28 14:45:00,
2013-01-28 06:55:00,32.1,24.1,30.29,ENE,70,4.0,4.0,72,0.00,,,0.00,Wunderground v.1.13,2013-01-28 14:55:00,
2013-01-28 07:00:00,31.9,24.2,30.29,ENE,74,3.0,3.0,73,0.00,,,0.00,Wunderground v.1.13,2013-01-28 15:00:00,
2013-01-28 07:05:00,31.8,24.1,30.30,ENE,66,2.0,7.0,73,0.00,,,0.00,Wunderground v.1.13,2013-01-28 15:05:00,
2013-01-28 07:10:00,31.9,23.9,30.30,ENE,75,3.0,3.0,72,0.00,,,0.00,Wunderground v.1.13,2013-01-28 15:10:00,
2013-01-28 07:20:00,32.2,23.8,30.31,ENE,65,2.0,7.0,71,0.00,,,0.00,Wunderground v.1.13,2013-01-28 15:20:00,
2013-01-28 07:30:00,32.8,23.7,30.30,ENE,57,2.0,7.0,69,0.00,,,0.00,Wunderground v.1.13,2013-01-28 15:30:00,
2013-01-28 07:35:00,33.1,24.0,30.31,ENE,66,1.0,7.0,69,0.00,,,0.00,Wunderground v.1.13,2013-01-28 15:35:00,
2013-01-28 07:50:00,33.2,23.8,30.31,NE,38,2.0,7.0,68,0.00,,,0.00,Wunderground v.1.13,2013-01-28 15:50:00,
2013-01-28 08:00:00,35.5,24.1,30.31,NE,42,2.0,7.0,63,0.00,,,0.00,Wunderground v.1.13,2013-01-28 16:00:00,
2013-01-28 08:10:00,37.0,24.4,30.30,NE,34,2.0,7.0,60,0.00,,,0.00,Wunderground v.1.13,2013-01-28 16:10:00,
2013-01-28 08:20:00,37.3,25.1,30.30,NE,55,3.0,3.0,61,0.00,,,0.00,Wunderground v.1.13,2013-01-28 16:20:00,
2013-01-28 08:30:00,38.2,25.5,30.31,NE,41,3.0,7.0,60,0.00,,,0.00,Wunderground v.1.13,2013-01-28 16:30:00,
2013-01-28 08:40:00,37.9,25.6,30.31,ENE,75,3.0,7.0,61,0.00,,,0.00,Wunderground v.1.13,2013-01-28 16:40:00,
2013-01-28 08:45:00,37.9,25.2,30.31,ENE,69,2.0,2.0,60,0.00,,,0.00,Wunderground v.1.13,2013-01-28 16:45:00,
2013-01-28 08:55:00,38.3,26.4,30.31,NE,54,2.0,2.0,62,0.00,,,0.00,Wunderground v.1.13,2013-01-28 16:55:00,
2013-01-28 09:05:00,39.5,27.9,30.31,ENE,67,2.0,7.0,63,0.00,,,0.00,Wunderground v.1.13,2013-01-28 17:05:00,
2013-01-28 09:10:00,39.5,27.5,30.31,ENE,73,3.0,7.0,62,0.00,,,0.00,Wunderground v.1.13,2013-01-28 17:10:00,
2013-01-28 09:15:00,39.9,27.5,30.31,ENE,74,3.0,3.0,61,0.00,,,0.00,Wunderground v.1.13,2013-01-28 17:15:00,
2013-01-28 09:25:00,41.3,28.0,30.31,ENE,71,2.0,7.0,59,0.00,,,0.00,Wunderground v.1.13,2013-01-28 17:25:00,
2013-01-28 09:35:00,41.9,27.3,30.30,ENE,71,0.0,7.0,56,0.00,,,0.00,Wunderground v.1.13,2013-01-28 17:35:00,
2013-01-28 09:40:00,42.1,27.1,30.31,North,350,0.0,7.0,55,0.00,,,0.00,Wunderground v.1.13,2013-01-28 17:40:00,
2013-01-28 09:50:00,42.3,26.8,30.32,WNW,292,0.0,7.0,54,0.00,,,0.00,Wunderground v.1.13,2013-01-28 17:50:00,
2013-01-28 10:00:00,42.9,27.8,30.32,NW,311,1.0,7.0,55,0.00,,,0.00,Wunderground v.1.13,2013-01-28 18:00:00,
2013-01-28 10:05:00,43.1,27.6,30.32,NNW,329,2.0,7.0,54,0.00,,,0.00,Wunderground v.1.13,2013-01-28 18:05:00,
2013-01-28 10:10:00,43.2,28.1,30.32,WNW,284,2.0,2.0,55,0.00,,,0.00,Wunderground v.1.13,2013-01-28 18:10:00,
2013-01-28 10:15:00,43.5,28.8,30.32,WNW,288,1.0,7.0,56,0.00,,,0.00,Wunderground v.1.13,2013-01-28 18:15:00,
2013-01-28 10:25:00,44.2,29.5,30.32,NNW,340,3.0,7.0,56,0.00,,,0.00,Wunderground v.1.13,2013-01-28 18:25:00,
2013-01-28 10:35:00,43.8,29.1,30.33,NNW,332,3.0,7.0,56,0.00,,,0.00,Wunderground v.1.13,2013-01-28 18:35:00,
2013-01-28 10:45:00,44.6,29.9,30.33,NNE,26,1.0,7.0,56,0.00,,,0.00,Wunderground v.1.13,2013-01-28 18:45:00,
2013-01-28 10:55:00,44.8,28.7,30.33,WNW,296,2.0,7.0,53,0.00,,,0.00,Wunderground v.1.13,2013-01-28 18:55:00,
2013-01-28 11:05:00,45.1,29.4,30.33,West,273,2.0,7.0,54,0.00,,,0.00,Wunderground v.1.13,2013-01-28 19:05:00,
2013-01-28 11:15:00,45.2,29.1,30.34,West,265,3.0,7.0,53,0.00,,,0.00,Wunderground v.1.13,2013-01-28 19:15:00,
2013-01-28 11:20:00,45.4,28.3,30.33,WSW,252,3.0,7.0,51,0.00,,,0.00,Wunderground v.1.13,2013-01-28 19:20:00,
2013-01-28 11:30:00,46.7,29.5,30.33,West,263,2.0,7.0,51,0.00,,,0.00,Wunderground v.1.13,2013-01-28 19:30:00,
2013-01-28 11:40:00,46.5,30.3,30.32,WNW,292,3.0,7.0,53,0.00,,,0.00,Wunderground v.1.13,2013-01-28 19:40:00,
2013-01-28 11:50:00,47.1,30.4,30.33,WSW,238,3.0,3.0,52,0.00,,,0.00,Wunderground v.1.13,2013-01-28 19:50:00,
2013-01-28 11:55:00,46.5,29.3,30.32,NW,309,4.0,4.0,51,0.00,,,0.00,Wunderground v.1.13,2013-01-28 19:55:00,
2013-01-28 12:05:00,46.2,29.5,30.33,West,270,5.0,5.0,52,0.00,,,0.00,Wunderground v.1.13,2013-01-28 20:05:00,
2013-01-28 12:15:00,47.3,31.0,30.32,West,280,4.0,4.0,53,0.00,,,0.00,Wunderground v.1.13,2013-01-28 20:15:00,
2013-01-28 12:20:00,46.7,31.8,30.32,West,262,5.0,7.0,56,0.00,,,0.00,Wunderground v.1.13,2013-01-28 20:20:00,
2013-01-28 12:30:00,47.3,32.4,30.33,NW,315,4.0,7.0,56,0.00,,,0.00,Wunderground v.1.13,2013-01-28 20:30:00,
2013-01-28 12:40:00,46.5,32.1,30.32,WNW,301,5.0,7.0,57,0.00,,,0.00,Wunderground v.1.13,2013-01-28 20:40:00,
2013-01-28 12:45:00,46.4,31.5,30.32,WNW,296,5.0,7.0,56,0.00,,,0.00,Wunderground v.1.13,2013-01-28 20:45:00,
2013-01-28 12:50:00,46.5,32.5,30.32,WNW,298,5.0,5.0,58,0.00,,,0.00,Wunderground v.1.13,2013-01-28 20:50:00,
2013-01-28 13:00:00,46.4,32.0,30.32,West,265,4.0,7.0,57,0.00,,,0.00,Wunderground v.1.13,2013-01-28 21:00:00,
2013-01-28 13:05:00,46.0,32.5,30.32,West,278,5.0,5.0,59,0.00,,,0.00,Wunderground v.1.13,2013-01-28 21:05:00,
2013-01-28 13:15:00,46.2,31.8,30.32,NW,313,4.0,5.0,57,0.00,,,0.00,Wunderground v.1.13,2013-01-28 21:15:00,
2013-01-28 13:20:00,46.2,32.7,30.32,West,279,4.0,7.0,59,0.00,,,0.00,Wunderground v.1.13,2013-01-28 21:20:00,
2013-01-28 13:30:00,46.8,32.4,30.31,WNW,283,3.0,5.0,57,0.00,,,0.00,Wunderground v.1.13,2013-01-28 21:30:00,
2013-01-28 13:35:00,47.0,32.1,30.32,West,273,4.0,7.0,56,0.00,,,0.00,Wunderground v.1.13,2013-01-28 21:35:00,
2013-01-28 13:40:00,47.1,32.6,30.31,WSW,258,4.0,4.0,57,0.00,,,0.00,Wunderground v.1.13,2013-01-28 21:40:00,
2013-01-28 13:45:00,47.4,32.5,30.31,WNW,287,4.0,10.0,56,0.00,,,0.00,Wunderground v.1.13,2013-01-28 21:45:00,
2013-01-28 13:55:00,47.4,32.9,30.31,NW,320,4.0,4.0,57,0.00,,,0.00,Wunderground v.1.13,2013-01-28 21:55:00,
2013-01-28 14:05:00,47.3,32.4,30.31,West,270,5.0,13.0,56,0.00,,,0.00,Wunderground v.1.13,2013-01-28 22:05:00,
2013-01-28 14:15:00,47.4,30.6,30.31,West,260,6.0,6.0,52,0.00,,,0.00,Wunderground v.1.13,2013-01-28 22:15:00,
2013-01-28 14:25:00,48.5,30.7,30.31,West,266,3.0,3.0,50,0.00,,,0.00,Wunderground v.1.13,2013-01-28 22:25:00,
2013-01-28 14:30:00,48.3,31.9,30.31,West,279,4.0,4.0,53,0.00,,,0.00,Wunderground v.1.13,2013-01-28 22:30:00,
2013-01-28 14:40:00,48.6,31.3,30.31,WSW,250,2.0,13.0,51,0.00,,,0.00,Wunderground v.1.13,2013-01-28 22:40:00,
2013-01-28 14:45:00,48.5,31.2,30.31,WNW,285,3.0,13.0,51,0.00,,,0.00,Wunderground v.1.13,2013-01-28 22:45:00,
2013-01-28 14:55:00,48.2,31.9,30.31,WSW,250,4.0,4.0,53,0.00,,,0.00,Wunderground v.1.13,2013-01-28 22:55:00,
2013-01-28 15:05:00,47.4,32.0,30.31,West,270,3.0,13.0,55,0.00,,,0.00,Wunderground v.1.13,2013-01-28 23:05:00,
2013-01-28 15:10:00,46.8,31.9,30.31,West,269,4.0,4.0,56,0.00,,,0.00,Wunderground v.1.13,2013-01-28 23:10:00,
2013-01-28 15:20:00,46.2,32.2,30.32,WNW,286,4.0,4.0,58,0.00,,,0.00,Wunderground v.1.13,2013-01-28 23:20:00,
2013-01-28 15:25:00,46.0,32.5,30.32,WNW,294,4.0,13.0,59,0.00,,,0.00,Wunderground v.1.13,2013-01-28 23:25:00,
2013-01-28 15:35:00,45.7,32.2,30.33,West,279,5.0,5.0,59,0.00,,,0.00,Wunderground v.1.13,2013-01-28 23:35:00,
2013-01-28 15:40:00,45.8,31.9,30.33,WSW,255,5.0,5.0,58,0.00,,,0.00,Wunderground v.1.13,2013-01-28 23:40:00,
2013-01-28 15:50:00,45.8,31.9,30.33,WSW,256,5.0,13.0,58,0.00,,,0.00,Wunderground v.1.13,2013-01-28 23:50:00,
2013-01-28 15:59:00,45.8,31.4,30.33,West,259,5.0,5.0,57,0.00,,,0.00,Wunderground v.1.13,2013-01-28 23:59:00,
2013-01-28 16:05:00,45.5,31.1,30.34,NW,306,4.0,4.0,57,0.00,,,0.00,Wunderground v.1.13,2013-01-29 00:05:00,
2013-01-28 16:10:00,45.5,32.4,30.34,WNW,292,4.0,13.0,60,0.00,,,0.00,Wunderground v.1.13,2013-01-29 00:10:00,
2013-01-28 16:15:00,45.7,31.8,30.34,WSW,251,4.0,4.0,58,0.00,,,0.00,Wunderground v.1.13,2013-01-29 00:15:00,
2013-01-28 16:25:00,45.2,32.1,30.34,West,267,4.0,4.0,60,0.00,,,0.00,Wunderground v.1.13,2013-01-29 00:25:00,
2013-01-28 16:35:00,44.9,31.4,30.34,WNW,290,4.0,4.0,59,0.00,,,0.00,Wunderground v.1.13,2013-01-29 00:35:00,
2013-01-28 16:40:00,44.6,31.1,30.34,WNW,286,4.0,13.0,59,0.00,,,0.00,Wunderground v.1.13,2013-01-29 00:40:00,
2013-01-28 16:50:00,44.2,31.6,30.34,West,277,3.0,3.0,61,0.00,,,0.00,Wunderground v.1.13,2013-01-29 00:50:00,
2013-01-28 16:55:00,43.9,31.3,30.35,West,277,2.0,2.0,61,0.00,,,0.00,Wunderground v.1.13,2013-01-29 00:55:00,
2013-01-28 17:00:00,43.6,31.4,30.35,West,266,1.0,1.0,62,0.00,,,0.00,Wunderground v.1.13,2013-01-29 01:00:00,
2013-01-28 17:05:00,43.3,31.5,30.35,West,261,1.0,1.0,63,0.00,,,0.00,Wunderground v.1.13,2013-01-29 01:05:00,
2013-01-28 17:15:00,42.3,31.4,30.36,West,280,0.0,13.0,65,0.00,,,0.00,Wunderground v.1.13,2013-01-29 01:15:00,
2013-01-28 17:20:00,41.9,31.0,30.36,West,280,0.0,13.0,65,0.00,,,0.00,Wunderground v.1.13,2013-01-29 01:20:00,
2013-01-28 17:30:00,41.2,31.1,30.37,West,263,1.0,13.0,67,0.00,,,0.00,Wunderground v.1.13,2013-01-29 01:30:00,
2013-01-28 17:40:00,41.2,31.1,30.37,WNW,294,0.0,13.0,67,0.00,,,0.00,Wunderground v.1.13,2013-01-29 01:40:00,
2013-01-28 17:50:00,41.1,31.0,30.37,NW,313,0.0,13.0,67,0.00,,,0.00,Wunderground v.1.13,2013-01-29 01:50:00,
2013-01-28 17:55:00,40.9,30.8,30.37,NW,313,0.0,13.0,67,0.00,,,0.00,Wunderground v.1.13,2013-01-29 01:55:00,
2013-01-28 18:05:00,40.8,31.1,30.37,NW,313,0.0,13.0,68,0.00,,,0.00,Wunderground v.1.13,2013-01-29 02:05:00,
2013-01-28 18:15:00,40.6,31.6,30.38,NW,313,0.0,13.0,70,0.00,,,0.00,Wunderground v.1.13,2013-01-29 02:15:00,
2013-01-28 18:25:00,40.6,31.6,30.38,NW,308,0.0,13.0,70,0.00,,,0.00,Wunderground v.1.13,2013-01-29 02:25:00,
2013-01-28 18:35:00,40.9,31.5,30.39,NW,310,0.0,13.0,69,0.00,,,0.00,Wunderground v.1.13,2013-01-29 02:35:00,
2013-01-28 18:45:00,40.9,31.9,30.39,NW,310,0.0,13.0,70,0.00,,,0.00,Wunderground v.1.13,2013-01-29 02:45:00,
2013-01-28 18:55:00,41.2,31.4,30.38,NW,326,0.0,13.0,68,0.00,,,0.00,Wunderground v.1.13,2013-01-29 02:55:00,
2013-01-28 19:05:00,41.5,31.0,30.38,North,350,0.0,13.0,66,0.00,,,0.00,Wunderground v.1.13,2013-01-29 03:05:00,
2013-01-28 19:10:00,41.6,30.7,30.38,North,355,0.0,13.0,65,0.00,,,0.00,Wunderground v.1.13,2013-01-29 03:10:00,
2013-01-28 19:20:00,41.6,30.7,30.37,North,355,0.0,13.0,65,0.00,,,0.00,Wunderground v.1.13,2013-01-29 03:20:00,
2013-01-28 19:30:00,41.6,30.7,30.37,North,355,0.0,13.0,65,0.00,,,0.00,Wunderground v.1.13,2013-01-29 03:30:00,
2013-01-28 19:35:00,41.8,30.9,30.37,North,355,0.0,13.0,65,0.00,,,0.00,Wunderground v.1.13,2013-01-29 03:35:00,
2013-01-28 19:45:00,41.8,30.9,30.38,NE,49,1.0,1.0,65,0.00,,,0.00,Wunderground v.1.13,2013-01-29 03:45:00,
2013-01-28 19:50:00,41.9,31.0,30.37,NE,49,1.0,13.0,65,0.00,,,0.00,Wunderground v.1.13,2013-01-29 03:50:00,
2013-01-28 20:00:00,41.8,30.9,30.37,NE,49,1.0,1.0,65,0.00,,,0.00,Wunderground v.1.13,2013-01-29 04:00:00,
2013-01-28 20:10:00,41.6,31.1,30.38,NE,49,1.0,13.0,66,0.00,,,0.00,Wunderground v.1.13,2013-01-29 04:10:00,
2013-01-28 20:15:00,41.6,30.7,30.37,NE,49,1.0,13.0,65,0.00,,,0.00,Wunderground v.1.13,2013-01-29 04:15:00,
2013-01-28 20:20:00,41.3,31.2,30.38,NE,49,1.0,13.0,67,0.00,,,0.00,Wunderground v.1.13,2013-01-29 04:20:00,
2013-01-28 20:29:00,41.1,31.0,30.38,NE,49,0.0,13.0,67,0.00,,,0.00,Wunderground v.1.13,2013-01-29 04:29:00,
2013-01-28 20:35:00,40.9,30.8,30.38,NE,49,0.0,13.0,67,0.00,,,0.00,Wunderground v.1.13,2013-01-29 04:35:00,
2013-01-28 20:40:00,40.8,30.7,30.38,NE,49,0.0,13.0,67,0.00,,,0.00,Wunderground v.1.13,2013-01-29 04:40:00,
2013-01-28 20:50:00,40.3,30.9,30.38,NE,49,0.0,13.0,69,0.00,,,0.00,Wunderground v.1.13,2013-01-29 04:50:00,
2013-01-28 20:55:00,40.3,31.6,30.39,NE,49,0.0,13.0,71,0.00,,,0.00,Wunderground v.1.13,2013-01-29 04:55:00,
2013-01-28 21:05:00,39.9,31.3,30.39,NE,49,0.0,13.0,71,0.00,,,0.00,Wunderground v.1.13,2013-01-29 05:05:00,
2013-01-28 21:15:00,40.3,30.9,30.37,NE,49,0.0,13.0,69,0.00,,,0.00,Wunderground v.1.13,2013-01-29 05:15:00,
2013-01-28 21:20:00,40.6,30.9,30.37,NE,49,0.0,13.0,68,0.00,,,0.00,Wunderground v.1.13,2013-01-29 05:20:00,
2013-01-28 21:30:00,40.5,31.1,30.38,NE,49,0.0,13.0,69,0.00,,,0.00,Wunderground v.1.13,2013-01-29 05:30:00,
2013-01-28 21:35:00,40.1,31.4,30.38,NE,49,0.0,13.0,71,0.00,,,0.00,Wunderground v.1.13,2013-01-29 05:35:00,
2013-01-28 21:45:00,39.9,31.3,30.37,NE,49,0.0,13.0,71,0.00,,,0.00,Wunderground v.1.13,2013-01-29 05:45:00,
2013-01-28 21:50:00,39.8,31.5,30.38,NE,49,0.0,13.0,72,0.00,,,0.00,Wunderground v.1.13,2013-01-29 05:50:00,
2013-01-28 21:55:00,39.5,31.6,30.37,NE,49,0.0,13.0,73,0.00,,,0.00,Wunderground v.1.13,2013-01-29 05:55:00,
2013-01-28 22:05:00,39.3,31.7,30.38,NE,49,0.0,13.0,74,0.00,,,0.00,Wunderground v.1.13,2013-01-29 06:05:00,
2013-01-28 22:15:00,39.3,31.7,30.37,NE,49,0.0,13.0,74,0.00,,,0.00,Wunderground v.1.13,2013-01-29 06:15:00,
2013-01-28 22:20:00,39.2,31.6,30.38,NE,49,0.0,13.0,74,0.00,,,0.00,Wunderground v.1.13,2013-01-29 06:20:00,
2013-01-28 22:30:00,38.8,31.9,30.38,NE,49,0.0,13.0,76,0.00,,,0.00,Wunderground v.1.13,2013-01-29 06:30:00,
2013-01-28 22:35:00,38.5,31.9,30.38,East,80,1.0,13.0,77,0.00,,,0.00,Wunderground v.1.13,2013-01-29 06:35:00,
2013-01-28 22:40:00,38.5,31.6,30.38,East,80,2.0,2.0,76,0.00,,,0.00,Wunderground v.1.13,2013-01-29 06:40:00,
2013-01-28 22:50:00,38.5,30.9,30.39,East,80,0.0,13.0,74,0.00,,,0.00,Wunderground v.1.13,2013-01-29 06:50:00,
2013-01-28 22:59:00,38.6,31.0,30.39,East,80,0.0,13.0,74,0.00,,,0.00,Wunderground v.1.13,2013-01-29 06:59:00,
2013-01-28 23:05:00,38.8,30.9,30.39,East,80,0.0,13.0,73,0.00,,,0.00,Wunderground v.1.13,2013-01-29 07:05:00,
2013-01-28 23:10:00,38.9,31.0,30.39,East,80,0.0,13.0,73,0.00,,,0.00,Wunderground v.1.13,2013-01-29 07:10:00,
2013-01-28 23:15:00,38.9,31.0,30.38,East,80,0.0,13.0,73,0.00,,,0.00,Wunderground v.1.13,2013-01-29 07:15:00,
2013-01-28 23:25:00,38.8,31.6,30.39,East,80,0.0,13.0,75,0.00,,,0.00,Wunderground v.1.13,2013-01-29 07:25:00,
2013-01-28 23:30:00,38.8,31.6,30.38,East,80,0.0,13.0,75,0.00,,,0.00,Wunderground v.1.13,2013-01-29 07:30:00,
2013-01-28 23:40:00,38.5,31.3,30.38,East,80,0.0,13.0,75,0.00,,,0.00,Wunderground v.1.13,2013-01-29 07:40:00,
2013-01-28 23:45:00,38.6,31.0,30.38,East,80,0.0,13.0,74,0.00,,,0.00,Wunderground v.1.13,2013-01-29 07:45:00,
2013-01-28 23:55:00,38.5,30.9,30.39,East,80,0.0,13.0,74,0.00,,,0.00,Wunderground v.1.13,2013-01-29 07:55:00,